[[{"header":{"parameterUnit":"m.s-1","parameterCategory":1,"la1":30.2991,"la2":30.254,"lo1":-89.0895,"lo2":-89.0444,"dy":0.0017,"dx":0.0017,"nx":28,"ny":28,"refTime":"2024-10-15T09:00:00:Z","depth":0,"parameterNumber":2,"parameterNumberName":"U-component_of_WINDS"},"data":[0,0,0,0,0,0,0,0,0,0,0,0,0,0,0,0,0,0,0,0,0,0,0,0,0,0,0,0,0,0,0,0,0,0,0,0,0,0,0,0,0,0,0,0,0,0,0,0,0,0,0,0,0,0,0,0,0,0,-5.411,-5.4111,0,-5.4149,-5.4149,-5.415,-5.3923,-5.3916,-5.391,-5.3904,-5.3944,-5.3951,-5.3958,0,0,0,0,0,0,0,0,0,0,0,0,0,-5.384,-5.3846,-5.411,-5.4111,-5.4111,-5.4149,-5.4149,-5.415,-5.3924,-5.3916,-5.3908,-5.3901,-5.3942,-5.395,-5.3959,0,0,0,0,0,0,0,0,0,0,0,0,0,-5.3926,-5.3848,-5.411,-5.4003,-5.3994,-5.4149,-5.4149,-5.415,-5.3925,-5.3916,-5.3906,-5.3897,-5.3939,-5.3949,-5.396,-5.422,0,0,-5.3992,-5.3997,0,0,0,0,0,0,0,0,-5.3921,-5.3936,-5.4018,-5.4011,-5.4001,-5.4021,-5.4068,-5.4174,-5.3928,-5.3952,-5.3903,-5.3892,-5.3978,-5.3984,-5.4013,-5.4222,-5.4224,-5.3993,-5.4,-5.4004,-5.4007,0,0,0,0,0,0,0,-5.3916,-5.3933,-5.4125,-5.402,-5.4009,-5.3952,-5.3954,-5.4087,-5.4019,-5.3949,-5.3932,-5.394,-5.3971,-5.4003,-5.4012,-5.4224,-5.3993,-5.4003,-5.4009,-5.4013,-5.4647,-5.4657,0,0,0,0,0,0,-5.3924,-5.393,-5.4124,-5.4127,-5.3936,-5.3965,-5.3967,-5.4024,-5.4016,-5.4006,-5.3948,-5.3929,-5.399,-5.4,-5.4013,-5.4316,-5.4004,-5.4014,-5.402,-5.4637,-5.4649,-5.466,0,0,0,0,0,0,-5.3919,-5.3944,-5.4123,-5.4024,-5.4042,-5.398,-5.4047,-5.403,-5.4062,-5.4016,-5.4003,-5.3994,-5.3983,-5.3998,-5.417,-5.4315,-5.4019,-5.4029,-5.4624,-5.464,-5.4655,-5.4927,0,0,0,0,0,0,-5.3912,-5.3943,-5.4042,-5.4028,-5.4048,-5.428,-5.4055,-5.4038,-5.4081,-5.4057,-5.4056,-5.4046,-5.3976,-5.4155,-5.4181,-5.4324,-5.4037,-5.4611,-5.4631,-5.465,-5.4904,-5.495,-5.4988,0,0,0,0,0,-5.3903,-5.4117,-5.4048,-5.4073,-5.4171,-5.4289,-5.4301,-5.4216,-5.4094,-5.4192,-5.4162,-5.4046,-5.4295,-5.4175,-5.4201,-5.435,-5.4601,-5.4626,-5.4648,-5.4886,-5.4941,-5.4987,0,0,0,0,0,0,-5.4151,-5.4113,-5.4036,-5.4252,-5.4276,-5.4251,-5.4372,-5.4277,-5.4336,-5.4311,-5.4202,-5.4204,-5.4395,-5.4389,-5.4256,-5.4601,-5.4427,-5.4457,-5.4598,-5.465,-5.4691,-5.4689,-5.4046,0,0,0,0,0,-5.423,-5.433,-5.4291,-5.4486,-5.4501,-5.4436,-5.4484,-5.4416,-5.4436,-5.4445,-5.4427,-5.4451,-5.4534,-5.4591,-5.4665,-5.4902,-5.4898,-5.5017,-5.5059,-5.5094,-5.5121,-5.5245,-5.5297,-5.4737,-5.4737,-5.4737,0,0,-5.4396,-5.4388,-5.4457,-5.4535,-5.4545,-5.465,-5.4445,-5.4565,-5.4642,-5.4463,-5.4624,-5.4613,-5.4632,-5.4837,-5.4927,-5.4839,-5.5275,-5.5124,-5.5152,-5.516,-5.5275,-5.5328,-5.5375,-5.4753,-5.4751,-5.4748,0,0,-5.4751,-5.4756,-5.4917,-5.4931,-5.4949,-5.4903,-5.4942,-5.4932,-5.4917,-5.5077,-5.4944,-5.5034,-5.5179,-5.5198,-5.5227,-5.5588,-5.5484,-5.5615,-5.5835,-5.5957,-5.6001,-5.604,-5.6168,-5.6216,-5.5643,-5.5643,-5.5644,0,-5.4955,-5.5108,-5.5012,-5.5141,-5.5179,-5.5021,-5.5183,-5.5202,-5.5243,-5.5273,-5.5173,-5.5351,-5.5353,-5.5561,-5.5649,-5.5677,-5.5718,-5.5616,-5.6002,-5.604,-5.6075,-5.6196,-5.6245,-5.5659,-5.5657,-5.5656,-5.5654,0,-5.5358,-5.5466,-5.5594,-5.5638,-5.569,-5.5836,-5.5761,-5.5825,-5.5753,-5.5718,-5.5882,-5.5878,-5.5949,-5.5992,-5.5923,-5.619,-5.6135,-5.6021,-5.5844,-5.6146,-5.6258,-5.6304,-5.5682,-5.5676,-5.5672,-5.5668,0,0,-5.5872,-5.5859,-5.5908,-5.5925,-5.5932,-5.6014,-5.6152,-5.622,-5.6277,-5.631,-5.6423,-5.6549,-5.6443,-5.6476,-5.6407,-5.6514,-5.68,-5.6386,-5.6385,-5.6464,-5.7094,-5.718,-5.7236,-5.673,-5.6739,-5.6746,-5.7092,0,-5.6219,-5.6454,-5.6371,-5.6611,-5.6709,-5.6559,-5.6679,-5.6696,-5.6667,-5.6746,-5.6712,-5.6804,-5.6657,-5.6676,-5.6775,-5.6745,-5.6926,-5.6718,-5.6834,-5.684,-5.6835,-5.7294,-5.7386,-5.7714,-5.7136,-5.7143,-5.7148,0,-5.6657,-5.6707,-5.6957,-5.6946,-5.6984,-5.7094,-5.7149,-5.7226,-5.7242,-5.7213,-5.725,-5.7157,-5.7291,-5.7113,-5.7296,-5.7157,-5.7199,-5.7191,-5.7201,-5.7209,-5.7013,-5.7316,-5.7816,-5.7866,-5.7217,-5.7211,-5.7206,0,-5.7007,-5.7137,-5.7303,-5.7323,-5.7314,-5.7394,-5.7395,-5.7401,-5.7447,-5.7494,-5.7523,-5.7586,-5.7621,-5.7672,-5.7599,-5.7477,-5.7792,-5.7609,-5.7772,-5.7774,-5.7846,-5.7842,-5.8361,-5.7873,-5.7872,-5.7871,-5.787,0,-5.7404,-5.7563,-5.746,-5.7563,-5.7736,-5.7638,-5.7812,-5.7795,-5.7802,-5.7897,-5.7771,-5.7864,-5.7761,-5.7845,-5.7788,-5.7947,-5.7964,-5.7944,-5.7927,-5.7956,-5.7959,-5.7983,-5.7958,-5.7884,-5.7881,-5.7879,-5.7877,0,-5.7825,-5.7763,-5.7934,-5.7911,-5.7909,-5.8038,-5.8018,-5.8111,-5.8072,-5.8195,-5.8218,-5.8158,-5.8249,-5.818,-5.827,-5.8232,-5.8442,-5.8393,-5.8438,-5.8424,-5.8591,-5.8577,-5.9143,-5.9212,-5.8681,-5.8686,-5.869,0,-5.8083,-5.8201,-5.8191,-5.8246,-5.8255,-5.8345,-5.8391,-5.8299,-5.8352,-5.8378,-5.8469,-5.8548,-5.8608,-5.876,-5.8724,-5.8792,-5.8743,-5.8937,-5.8753,-5.8777,-5.8746,-5.874,-5.8751,-5.8975,-5.8981,-5.8986,-5.8991,0,-5.8547,-5.851,-5.8581,-5.8642,-5.87,-5.8744,-5.8776,-5.8829,-5.8735,-5.8801,-5.8892,-5.8938,-5.9029,-5.911,-5.9165,-5.9164,-5.9063,-5.9049,-5.909,-5.9121,-5.9141,-5.9132,-5.854,-5.9036,-5.9032,-5.9028,-5.9026,-5.9024,-5.8894,-5.8992,-5.9,-5.9083,-5.9098,-5.9132,-5.9218,-5.919,-5.9264,-5.9331,-5.9272,-5.9382,-5.9393,-5.9456,-5.9467,-5.9551,-5.9471,-5.9532,-5.9547,-5.9563,-5.9587,-5.9128,-5.9561,-5.956,-5.9558,-5.9557,-5.9556,0,-5.9352,-5.9349,-5.9427,-5.9476,-5.9542,-5.944,-5.9471,-5.9532,-5.963,-5.9649,-5.971,-5.9814,-5.9892,-5.9862,-5.993,-6.0003,-5.9958,-6.0024,-6.0018,-6.0019,-5.9654,-5.9612,-6.0059,-6.0059,-6.0059,-6.0059,-6.0059,-6.0058,-5.9598,-5.9758,-5.9722,-5.9888,-5.9883,-5.999,-6.0016,-6.0046,-6.0061,-6.0183,-6.0247,-6.0226,-6.0225,-6.0292,-6.0358,-6.0347,-6.0378,-6.0461,-6.0434,-6.0094,-6.0045,-5.9997,-5.9957,-6.0469,-6.047,-6.0791,-6.0794,-6.0796]},{"header":{"parameterUnit":"m.s-1","parameterCategory":1,"la1":30.2991,"la2":30.254,"lo1":-89.0895,"lo2":-89.0444,"dy":0.0017,"dx":0.0017,"nx":28,"ny":28,"refTime":"2024-10-15T09:00:00:Z","depth":0,"parameterNumber":3,"parameterNumberName":"V-component_of_WINDS"},"data":[0,0,0,0,0,0,0,0,0,0,0,0,0,0,0,0,0,0,0,0,0,0,0,0,0,0,0,0,0,0,0,0,0,0,0,0,0,0,0,0,0,0,0,0,0,0,0,0,0,0,0,0,0,0,0,0,0,0,-5.6422,-5.6422,0,-5.6474,-5.6474,-5.6475,-5.6388,-5.6385,-5.6382,-5.6379,-5.6429,-5.6433,-5.6437,0,0,0,0,0,0,0,0,0,0,0,0,0,-5.6242,-5.6246,-5.6422,-5.6423,-5.6423,-5.6474,-5.6474,-5.6475,-5.6388,-5.6385,-5.6381,-5.6378,-5.6428,-5.6432,-5.6437,0,0,0,0,0,0,0,0,0,0,0,0,0,-5.631,-5.6247,-5.6422,-5.6386,-5.6383,-5.6474,-5.6474,-5.6475,-5.6389,-5.6384,-5.638,-5.6376,-5.6426,-5.6432,-5.6438,-5.6565,0,0,-5.6457,-5.646,0,0,0,0,0,0,0,0,-5.6306,-5.6317,-5.6391,-5.6389,-5.6386,-5.642,-5.6429,-5.6505,-5.639,-5.6387,-5.6379,-5.6374,-5.6429,-5.6435,-5.6454,-5.6567,-5.6569,-5.6457,-5.6461,-5.6464,-5.6465,0,0,0,0,0,0,0,-5.6302,-5.6314,-5.6442,-5.6392,-5.6389,-5.6366,-5.637,-5.6443,-5.6432,-5.6387,-5.638,-5.6388,-5.6427,-5.6449,-5.6455,-5.657,-5.6457,-5.6463,-5.6466,-5.6469,-5.6786,-5.6791,0,0,0,0,0,0,-5.6302,-5.6311,-5.6441,-5.6444,-5.6334,-5.6372,-5.6378,-5.6413,-5.6431,-5.643,-5.6392,-5.6384,-5.644,-5.6448,-5.6456,-5.6603,-5.6464,-5.6469,-5.6473,-5.6781,-5.6787,-5.6792,0,0,0,0,0,0,-5.6298,-5.6314,-5.6439,-5.6376,-5.639,-5.638,-5.6421,-5.6417,-5.6438,-5.6435,-5.6432,-5.6416,-5.6437,-5.6448,-5.6538,-5.6604,-5.6472,-5.6478,-5.6776,-5.6783,-5.679,-5.6901,0,0,0,0,0,0,-5.6294,-5.6314,-5.6363,-5.6377,-5.6393,-5.6521,-5.6425,-5.6421,-5.6449,-5.6439,-5.6457,-5.6456,-5.6434,-5.6529,-5.6544,-5.661,-5.6483,-5.677,-5.6779,-5.6788,-5.6891,-5.6911,-5.6928,0,0,0,0,0,-5.6288,-5.6392,-5.6366,-5.6382,-5.6455,-5.6525,-5.6534,-5.6508,-5.6455,-5.6503,-5.6501,-5.6455,-5.6595,-5.6539,-5.6555,-5.6624,-5.6766,-5.6776,-5.6787,-5.6883,-5.6907,-5.6927,0,0,0,0,0,0,-5.6386,-5.6394,-5.6365,-5.6478,-5.6502,-5.651,-5.6571,-5.6535,-5.6574,-5.6563,-5.6528,-5.6533,-5.663,-5.6636,-5.6574,-5.6746,-5.6671,-5.6685,-5.6739,-5.6761,-5.6779,-5.6775,-5.6488,0,0,0,0,0,-5.6421,-5.6478,-5.6482,-5.6581,-5.6594,-5.6581,-5.661,-5.6588,-5.6611,-5.6621,-5.6625,-5.6648,-5.6696,-5.6729,-5.6774,-5.6892,-5.6893,-5.6947,-5.6965,-5.698,-5.6992,-5.7052,-5.7075,-5.6827,-5.6827,-5.6827,0,0,-5.6493,-5.6504,-5.6543,-5.6601,-5.6617,-5.6675,-5.659,-5.6656,-5.6698,-5.663,-5.6716,-5.672,-5.6743,-5.6847,-5.6893,-5.6855,-5.7061,-5.6994,-5.7006,-5.701,-5.7066,-5.7089,-5.711,-5.6835,-5.6833,-5.6832,0,0,-5.6654,-5.667,-5.6753,-5.677,-5.6796,-5.6786,-5.6806,-5.682,-5.682,-5.6905,-5.6855,-5.6904,-5.6989,-5.7007,-5.7027,-5.7193,-5.7152,-5.7209,-5.7304,-5.7362,-5.7382,-5.7399,-5.7456,-5.7477,-5.7222,-5.7222,-5.7222,0,-5.6741,-5.6828,-5.68,-5.6869,-5.6895,-5.6836,-5.6918,-5.6937,-5.6975,-5.6993,-5.6951,-5.7055,-5.7067,-5.7172,-5.7213,-5.7232,-5.7252,-5.7206,-5.7382,-5.7399,-5.7414,-5.7468,-5.749,-5.7229,-5.7228,-5.7227,-5.7226,0,-5.6932,-5.6993,-5.7057,-5.7096,-5.7128,-5.7204,-5.7185,-5.7222,-5.7196,-5.719,-5.7276,-5.7288,-5.7333,-5.7357,-5.7333,-5.7459,-5.7434,-5.7388,-5.7311,-5.7445,-5.7495,-5.7515,-5.7238,-5.7236,-5.7234,-5.7232,0,0,-5.7157,-5.7178,-5.7201,-5.7217,-5.724,-5.7286,-5.7357,-5.7402,-5.7433,-5.7461,-5.7518,-5.7591,-5.7547,-5.757,-5.7548,-5.76,-5.7727,-5.7546,-5.7546,-5.7577,-5.7863,-5.7897,-5.7922,-5.77,-5.7704,-5.7707,-5.7861,0,-5.7315,-5.744,-5.7416,-5.7537,-5.7591,-5.7536,-5.7597,-5.7617,-5.7613,-5.7658,-5.7652,-5.7704,-5.7643,-5.7656,-5.7705,-5.7702,-5.7784,-5.769,-5.7751,-5.7754,-5.7746,-5.7948,-5.7984,-5.8129,-5.788,-5.7884,-5.7886,0,-5.7518,-5.7553,-5.768,-5.7691,-5.7713,-5.777,-5.7807,-5.7851,-5.7871,-5.7864,-5.7889,-5.7856,-5.7925,-5.7849,-5.7942,-5.7879,-5.7902,-5.7904,-5.7909,-5.7912,-5.7827,-5.7955,-5.8174,-5.8195,-5.7917,-5.7914,-5.7912,0,-5.7666,-5.7745,-5.783,-5.7846,-5.7862,-5.7903,-5.7911,-5.7927,-5.7955,-5.7987,-5.8004,-5.8044,-5.8066,-5.8097,-5.8074,-5.8021,-5.817,-5.8093,-5.8164,-5.8165,-5.8197,-5.8195,-5.8422,-5.8216,-5.8216,-5.8215,-5.8215,0,-5.7844,-5.7924,-5.7897,-5.7949,-5.8035,-5.8005,-5.8091,-5.8093,-5.8107,-5.8157,-5.8112,-5.8159,-5.8128,-5.8173,-5.8156,-5.8234,-5.8244,-5.8239,-5.8233,-5.8242,-5.8243,-5.8256,-5.8244,-5.8221,-5.822,-5.8219,-5.8218,0,-5.8024,-5.801,-5.8099,-5.8107,-5.8111,-5.8173,-5.8179,-5.8227,-5.8219,-5.8283,-5.8296,-5.8283,-5.8333,-5.8314,-5.8368,-5.8356,-5.8455,-5.8437,-5.8449,-5.8443,-5.8515,-5.8508,-5.8757,-5.8787,-5.8564,-5.8566,-5.8568,0,-5.8139,-5.8198,-5.8212,-5.8242,-5.8254,-5.8304,-5.8332,-5.8304,-5.8334,-5.836,-5.8404,-5.845,-5.8486,-5.8568,-5.8562,-5.8602,-5.8584,-5.8668,-5.8589,-5.8595,-5.8582,-5.8578,-5.8583,-5.8683,-5.8686,-5.8688,-5.869,0,-5.8342,-5.8331,-5.8373,-5.8412,-5.8447,-5.8476,-5.8501,-5.8529,-5.8502,-5.8538,-5.8588,-5.8616,-5.867,-5.8715,-5.875,-5.8757,-5.8719,-5.8715,-5.8733,-5.8742,-5.8745,-5.8742,-5.8489,-5.8709,-5.8707,-5.8705,-5.8704,-5.8704,-5.849,-5.8539,-5.8556,-5.8604,-5.862,-5.8644,-5.8688,-5.8686,-5.8728,-5.877,-5.8751,-5.8809,-5.8824,-5.8868,-5.888,-5.8924,-5.8891,-5.8918,-5.8924,-5.8931,-5.8939,-5.874,-5.893,-5.893,-5.8929,-5.8929,-5.8928,0,-5.8689,-5.8697,-5.8741,-5.8777,-5.8814,-5.8775,-5.8801,-5.8834,-5.8885,-5.8904,-5.8939,-5.8996,-5.904,-5.9038,-5.9077,-5.9112,-5.9096,-5.9124,-5.912,-5.9121,-5.8968,-5.8947,-5.9136,-5.9136,-5.9136,-5.9136,-5.9136,-5.9136,-5.8796,-5.8877,-5.8868,-5.8954,-5.8961,-5.9018,-5.9035,-5.9056,-5.9071,-5.9137,-5.9173,-5.9171,-5.9181,-5.922,-5.9258,-5.9256,-5.9271,-5.9306,-5.9297,-5.9153,-5.9133,-5.9113,-5.9093,-5.931,-5.931,-5.9447,-5.9448,-5.9449]}]]